Mills, WY

5:17 PM MST on February 06, 2016 (GMT -0700)
Natrona County International

Weather History for KCPR - October, 2013

Change the Weather History Date:

Thursday, October 31, 2013

  Actual Average Record
Temperature  
Mean Temperature 41 °F 40 °F  
Max Temperature 53 °F 53 °F 70 °F (2008)
Min Temperature 28 °F 27 °F 2 °F (1972)
Degree Days  
Heating Degree Days 24 25  
Month to date heating degree days 722 615  
Since 1 July heating degree days 889 899  
Cooling Degree Days 0 0  
Month to date cooling degree days 0 0  
Year to date cooling degree days 618 422  
Moisture  
Dew Point 26 °F    
Average Humidity 60    
Maximum Humidity 85    
Minimum Humidity 35    
Precipitation  
Precipitation 0.00 in 0.03 in 0.31 in (2000)
Month to date precipitation 3.03 1.11  
Year to date precipitation 13.70 11.27  
Snow  
Snow 0.00 in 0.30 in - ()
Month to date snowfall 16.4 7.4  
Since 1 July snowfall 21.2 9.2  
Since 1 September snowfall 21.2 9.2  
Snow Depth 0.00 in    
Sea Level Pressure  
Sea Level Pressure 29.85 in    
Wind  
Wind Speed 14 mph (WSW)    
Max Wind Speed 28 mph    
Max Gust Speed 35 mph    
Visibility 10 miles    
Events      
T = Trace of Precipitation, MM = Missing Value Source: NWS Daily Summary

Daily Weather History Graph

Daily Weather History Graph

Search for Another Location

Airport or City:

Trip Planner

Search our weather history database for the weather conditions in past years. The results will help you decide how hot, cold, wet, or windy it might be!

Date:

Astronomy

Oct. 31, 2013 Rise Set
Actual Time 7:39 AM MDT 5:58 PM MDT
Civil Twilight 7:09 AM MDT 6:28 PM MDT
Nautical Twilight 6:36 AM MDT 7:01 PM MDT
Astronomical Twilight 6:03 AM MDT 7:34 PM MDT
Moon 4:27 AM MDT (10/31) 4:22 PM MDT (10/31)
Length of Visible Light 11h 18m
Length of Day
10h 19m
Waning Crescent, 9% of the Moon is Illuminated
Oct 31
Waning Crescent
Nov 3
New
Nov 9
First Quarter
Nov 17
Full
Nov 25
Last Quarter

Hourly Weather History & Observations

Time (MDT) Temp. Windchill Dew Point Humidity Pressure Visibility Wind Dir Wind Speed Gust Speed Precip Events Conditions
12:53 AM 28.9 °F 22.8 °F 24.1 °F 82% 29.85 in 10.0 mi West 5.8 mph - N/A   Clear
1:53 AM 30.9 °F 22.2 °F 25.0 °F 79% 29.83 in 10.0 mi SW 10.4 mph - N/A   Clear
2:53 AM 30.0 °F 21.7 °F 24.1 °F 79% 29.83 in 10.0 mi SW 9.2 mph - N/A   Clear
3:53 AM 30.9 °F 20.7 °F 24.1 °F 76% 29.83 in 10.0 mi SW 13.8 mph - N/A   Clear
4:53 AM 30.0 °F 19.5 °F 23.0 °F 75% 29.83 in 10.0 mi SW 13.8 mph - N/A   Clear
5:53 AM 30.9 °F 19.1 °F 21.9 °F 69% 29.85 in 10.0 mi SW 18.4 mph - N/A   Clear
6:53 AM 30.9 °F 19.8 °F 23.0 °F 72% 29.88 in 10.0 mi SSW 16.1 mph - N/A   Clear
7:53 AM 30.9 °F 19.1 °F 21.9 °F 69% 29.89 in 10.0 mi SW 18.4 mph 26.5 mph N/A   Clear
8:53 AM 34.0 °F 23.4 °F 23.0 °F 64% 29.91 in 10.0 mi SW 17.3 mph 25.3 mph N/A   Clear
9:53 AM 41.0 °F 31.1 °F 25.0 °F 53% 29.88 in 10.0 mi SW 23.0 mph 29.9 mph N/A   Clear
10:53 AM 41.0 °F 33.5 °F 24.1 °F 51% 29.89 in 10.0 mi SW 13.8 mph 24.2 mph N/A   Overcast
11:53 AM 45.0 °F 37.1 °F 25.0 °F 46% 29.86 in 10.0 mi SW 19.6 mph 24.2 mph N/A   Overcast
12:53 PM 48.9 °F - 28.0 °F 44% 29.83 in 10.0 mi WSW 18.4 mph 25.3 mph N/A   Clear
1:53 PM 53.1 °F - 27.0 °F 37% 29.76 in 10.0 mi West 23.0 mph 27.6 mph N/A   Mostly Cloudy
2:53 PM 53.1 °F - 28.0 °F 38% 29.75 in 10.0 mi West 24.2 mph 32.2 mph N/A   Mostly Cloudy
3:53 PM 52.0 °F - 26.1 °F 37% 29.75 in 10.0 mi West 20.7 mph 28.8 mph N/A   Clear
4:53 PM 48.9 °F - 28.9 °F 46% 29.77 in 10.0 mi West 13.8 mph - N/A   Overcast
5:53 PM 46.0 °F 40.6 °F 28.9 °F 51% 29.79 in 10.0 mi WNW 11.5 mph - N/A   Partly Cloudy
6:53 PM 39.9 °F 34.5 °F 28.9 °F 65% 29.82 in 10.0 mi WNW 8.1 mph - N/A   Clear
7:53 PM 41.0 °F 35.2 °F 30.0 °F 65% 29.85 in 10.0 mi WNW 9.2 mph - N/A   Clear
8:53 PM 36.0 °F 31.1 °F 28.9 °F 76% 29.88 in 10.0 mi NW 5.8 mph - N/A   Clear
9:53 PM 35.1 °F 26.9 °F 28.9 °F 78% 29.88 in 10.0 mi West 11.5 mph - N/A   Clear
10:53 PM 37.0 °F 33.3 °F 28.9 °F 73% 29.92 in 10.0 mi NW 4.6 mph - N/A   Mostly Cloudy
11:53 PM 35.1 °F 29.3 °F 28.0 °F 76% 29.92 in 10.0 mi West 6.9 mph - N/A   Mostly Cloudy